Location: Moscow
(55.7500°N, 37.5830°E)
Time: 14:01:06
(UTC+03:00)

Vanguard 1 - Pass Details

Date: 09 December 2021
Orbit: 652 x 3830 km, 34.2° (Epoch: 25 January)

Event Time Altitude Azimuth Distance (km) Brightness Sun altitude
Exits shadow 01:16:23 21° 125° (SE) 5,620 13.7 -55.6°
Drops below altitude 10° 01:21:31 10° 115° (ESE) 6,254 14.1 -55.3°
Sets 01:26:10 0° 108° (ESE) 6,941 14.5 -55.0°
